Regional Weather Roundup
Issued by NWS Newport/Morehead, NC

Current Version | Previous Version | Text Only | Print | Product List | Glossary On
Versions: 1 2 3 4 5 6 7 8 9 10 11 12 13 14 15 16 17 18 19 20 21 22 23 24 25 26 27 28 29 30 31 32 33 34 35 36 37 38 39 40 41 42 43 44 45 46 47 48 49 50
000 ASUS42 KMHX 272312 RWRMHX WEATHER ROUNDUP FOR EASTERN NORTH CAROLINA NATIONAL WEATHER SERVICE NEWPORT/MOREHEAD CITY NC 600 PM EST FRI FEB 27 2015 NOTE: "FAIR" INDICATES FEW OR NO CLOUDS BELOW 12,000 FEET WITH NO SIGNIFICANT WEATHER AND/OR OBSTRUCTIONS TO VISIBILITY NCZ015>017-031-032-045>047-102-103-280000- NORTH COAST CITY SKY/WX TMP DP RH WIND PRES REMARKS EDENTON PTCLDY 38 30 71 NE7 30.44R ELIZABETH CITY CLEAR 33 27 78 NE18 30.46R KITTY HAWK CLEAR 35 29 79 N8G18 30.44R MANTEO CLEAR 36 28 75 N13 30.45R $$ NCZ045>047-081-094-103-104-280000- CENTRAL COAST CITY SKY/WX TMP DP RH WIND PRES REMARKS FRISCO MOCLDY 36 30 79 NE10G21 30.42R SWANQUARTER N/A 41 N/A N/A NE3 30.39R $$ NCZ095-097-098-100-101-280000- SOUTHERN COAST CITY SKY/WX TMP DP RH WIND PRES REMARKS BEAUFORT MOCLDY 43 30 60 NE8 30.40R CEDAR ISLAND N/A 39 N/A N/A NE9 30.44R JACKSONVILLE PTCLDY 46 30 53 N8 30.40R PINEY ISLAND N/A N/A N/A N/A MISG 30.41R WILMINGTON MOCLDY 45 34 65 E3 30.39R $$ NCZ011>013-027>030-043-044-078>080-089-090>093-098-280000- COASTAL PLAIN CITY SKY/WX TMP DP RH WIND PRES REMARKS AHOSKIE CLEAR 35 26 68 NE5 30.46R CLINTON CLEAR 48 30 50 N3 30.40R ELIZABETHTOWN CLEAR 48 30 49 CALM 30.39R GOLDSBORO CLEAR 46 31 56 N6 30.39R GREENVILLE CLEAR 43 27 52 N3 30.42R HAVELOCK MOCLDY 46 29 51 N7 30.41R KENANSVILLE CLEAR 46 28 49 NE3 30.41R KINSTON CLEAR 45 28 53 N6 30.42R NEW BERN PTCLDY 45 28 51 N7 30.41R RICHLANDS PTCLDY 45 28 53 N5 30.41R ROCKY MOUNT CLEAR 42 25 50 N5 30.43R WASHINGTON CLEAR 42 29 60 CALM 30.42R WHITEVILLE PTCLDY 49 31 50 N3 30.37R $$ AMZ130-135-150-152-154-156-158-170-250-252-270-ANZ085-086-088-633-658-670-280000- MARINE OBSERVATIONS STATION/POSITION TIME TEMP WIND PRES WAVE SWELL AIR SEA DIR/SP/G HT/PER HT/PER (UTC) (F) (DEG/KT/KT) (MB) (FT/S) (FT/S) CHESAPEAKE LIGHT 2200 32 360/ 19/ 19 1031.9 64 E VA BEACH 2250 40 61 10/ 16/ 19 1030.3 6/11 5/11 DUCK 2200 35 35 20/ 17/ 18 1029.5 2 E DUCK 2211 35 N/A 5/11 2/11 10 NE DUCK 2222 36 N/A 6/10 2/11 OREGON INLET 2200 36 38 10/ 13/ 17 1030.0 HATTERAS CG 2200 38 41 30/ 11/ 16 1029.6 CAPE LOOKOUT 2300 44 40/ 13/ 17 1029.3 BEAUFORT LAB 2200 45 41 40/ 7/ 12 1027.7 27 SE WRIGHTSVLE NOT AVBL 5 SE WRIGHTSVLE NOT AVBL 225 S CAPE HAT 2250 63 70 360/ 17/ 21 1025.0 11/11 8/11 41 SE CHARLESTON 2250 51 66 40/ 17/ 21 1027.3 5/ 6 2/ 8 $$

USA.gov is the U.S. government's official web portal to all federal, state and local government web resources and services.